This is the latest recevied weather packets stored in our database for station/object VE8SKI. If no packets are shown the sender has not sent any weather packets the latest 10 day(s).
| Time | Temp. | Humidity | Pressure | Rain* | Wind** | Luminosity | Snow |
|---|---|---|---|---|---|---|---|
| 1777675877 | 6.11° C | 70% | 1012.4 hPa | 0 mm | 4.92 m/s, 352° | - | - |
| 1777675577 | 6.11° C | 70% | 1012.3 hPa | 0 mm | 4.02 m/s, 15° | - | - |
| 1777675277 | 5.56° C | 71% | 1012.3 hPa | 0 mm | 4.92 m/s, 4° | - | - |
| 1777674978 | 6.11° C | 69% | 1012.2 hPa | 0 mm | 4.47 m/s, 7° | - | - |
| 1777674678 | 6.11° C | 70% | 1012.1 hPa | 0 mm | 4.92 m/s, 3° | - | - |
| 1777674379 | 5.56° C | 70% | 1012 hPa | 0 mm | 4.02 m/s, 7° | - | - |
| 1777674076 | 5.56° C | 70% | 1012 hPa | 0 mm | 4.47 m/s, 17° | - | - |
| 1777673777 | 5.56° C | 71% | 1011.9 hPa | 0 mm | 4.47 m/s, 14° | - | - |
| 1777673477 | 5.56° C | 71% | 1011.8 hPa | 0 mm | 5.36 m/s, 1° | - | - |
| 1777673178 | 5.56° C | 71% | 1011.7 hPa | 0 mm | 5.81 m/s, 17° | - | - |
| 1777672878 | 5.56° C | 72% | 1011.7 hPa | 0 mm | 4.92 m/s, 38° | - | - |
| 1777672579 | 5° C | 73% | 1011.7 hPa | 0 mm | 4.92 m/s, 13° | - | - |
| 1777672276 | 5° C | 73% | 1011.6 hPa | 0 mm | 4.92 m/s, 24° | - | - |
| 1777671977 | 5.56° C | 71% | 1011.5 hPa | 0 mm | 5.81 m/s, 27° | - | - |
| 1777671677 | 6.11° C | 71% | 1011.4 hPa | 0 mm | 4.47 m/s, 13° | - | - |
| 1777671378 | 5.56° C | 71% | 1011.2 hPa | 0 mm | 4.47 m/s, 7° | - | - |
| 1777671078 | 6.11° C | 69% | 1011.2 hPa | 0 mm | 5.36 m/s, 1° | - | - |
| 1777670779 | 6.11° C | 70% | 1011.1 hPa | 0 mm | 5.36 m/s, 21° | - | - |
| 1777670476 | 5.56° C | 71% | 1010.9 hPa | 0 mm | 4.47 m/s, 359° | - | - |
| 1777670177 | 6.11° C | 70% | 1010.8 hPa | 0 mm | 4.92 m/s, 14° | - | - |
| 1777669877 | 6.67° C | 70% | 1010.7 hPa | 0 mm | 4.47 m/s, 23° | - | - |
| 1777669578 | 6.67° C | 70% | 1010.7 hPa | 0 mm | 5.36 m/s, 129° | - | - |
| 1777669278 | 6.67° C | 70% | 1010.5 hPa | 0 mm | 4.02 m/s, 6° | - | - |
| 1777668979 | 6.11° C | 70% | 1010.5 hPa | 0 mm | 4.47 m/s, 31° | - | - |
| 1777668676 | 6.11° C | 70% | 1010.4 hPa | 0 mm | 4.92 m/s, 359° | - | - |
* Rain latest hour (hover to see other rain measurements)
** Current wind speed in m/s (hover to see current wind gust speed)